Weather History for Tucumcari, NM

Change the Weather History Date:

Tuesday, November 13, 2012

  Actual Average Record
Temperature  
Mean Temperature 44 °F -  
Max Temperature 60 °F 64 °F 82 °F (1967)
Min Temperature 28 °F 35 °F 6 °F (1940)
Degree Days  
Heating Degree Days 21    
Moisture  
Dew Point 5 °F    
Average Humidity 21    
Maximum Humidity 31    
Minimum Humidity 11    
Precipitation  
Precipitation 0.00 in - - ()
Sea Level Pressure  
Sea Level Pressure 30.22 in    
Wind  
Wind Speed 10 mph (SW)    
Max Wind Speed 24 mph    
Max Gust Speed 31 mph    
Visibility 10 miles    
Events      
Averages and records for this station are not official NWS values.
T = Trace of Precipitation, MM = Missing Value Source: NWS Daily Summary

Daily Weather History Graph

Daily Weather History Graph

Search for Another Location

Airport:

Trip Planner

Search our weather history database for the weather conditions in past years. The results will help you decide how hot, cold, wet, or windy it might be!

Date:

Astronomy

Nov. 13, 2012 Rise Set
Actual Time 6:27 AM MST 4:49 PM MST
Civil Twilight 6:00 AM MST 5:16 PM MST
Nautical Twilight 5:30 AM MST 5:46 PM MST
Astronomical Twilight 5:00 AM MST 6:16 PM MST
Moon 6:08 AM MST (11/13) 4:45 PM MST (11/13)
Length of Visible Light 11h 15m
Length of Day
10h 21m
Waning Crescent, 0% of the Moon is Illuminated
Nov 13
Waning Crescent
Nov 13
New
Nov 20
First Quarter
Nov 28
Full
Dec 6
Last Quarter

Hourly Weather History & Observations

Time (MST) Temp. Windchill Dew Point Humidity Pressure Visibility Wind Dir Wind Speed Gust Speed Precip Events Conditions
12:53 AM 28.9 °F 21.9 °F -5.1 °F 23% 30.33 in 10.0 mi WSW 6.9 mph - N/A   Clear
1:53 AM 32.0 °F 24.8 °F -2.0 °F 23% 30.29 in 10.0 mi SW 8.1 mph - N/A   Clear
2:53 AM 32.0 °F 24.2 °F -2.0 °F 23% 30.29 in 10.0 mi SSW 9.2 mph - N/A   Clear
3:53 AM 32.0 °F 27.5 °F -0.9 °F 24% 30.28 in 10.0 mi WSW 4.6 mph - N/A   Clear
5:53 AM 33.1 °F 26.9 °F 1.9 °F 27% 30.32 in 10.0 mi SSW 6.9 mph - N/A   Clear
6:53 AM 34.0 °F 25.5 °F 3.9 °F 28% 30.31 in 10.0 mi SW 11.5 mph - N/A   Clear
7:53 AM 41.0 °F 32.8 °F 8.1 °F 26% 30.32 in 10.0 mi SW 16.1 mph - N/A   Clear
8:53 AM 45.0 °F 37.4 °F 10.9 °F 25% 30.29 in 10.0 mi SSW 18.4 mph - N/A   Clear
9:53 AM 50.0 °F - 8.1 °F 18% 30.25 in 10.0 mi SSW 21.9 mph 31.1 mph N/A   Clear
10:53 AM 53.1 °F - 9.0 °F 17% 30.20 in 10.0 mi SSW 24.2 mph 29.9 mph N/A   Clear
11:53 AM 55.9 °F - 9.0 °F 15% 30.16 in 10.0 mi SSW 19.6 mph 31.1 mph N/A   Clear
12:53 PM 59.0 °F - 7.0 °F 13% 30.12 in 10.0 mi SW 19.6 mph 28.8 mph N/A   Clear
1:53 PM 60.1 °F - 6.1 °F 12% 30.11 in 10.0 mi SW 15.0 mph 23.0 mph N/A   Clear
2:53 PM 60.1 °F - 5.0 °F 11% 30.09 in 10.0 mi SSW 16.1 mph - N/A   Clear
3:53 PM 60.1 °F - 5.0 °F 11% 30.10 in 10.0 mi SW 11.5 mph - N/A   Clear
4:53 PM 54.0 °F - 6.1 °F 15% 30.14 in 10.0 mi SSW 5.8 mph - N/A   Clear
5:53 PM 48.0 °F - 6.1 °F 18% 30.18 in 10.0 mi South 3.5 mph - N/A   Clear
6:53 PM 44.1 °F 40.1 °F 6.1 °F 21% 30.20 in 10.0 mi WSW 6.9 mph - N/A   Clear
7:53 PM 37.9 °F 35.5 °F 3.9 °F 24% 30.22 in 10.0 mi East 3.5 mph - N/A   Clear
8:53 PM 42.1 °F 37.1 °F 7.0 °F 24% 30.22 in 10.0 mi WSW 8.1 mph - N/A   Clear
9:53 PM 37.0 °F 34.5 °F 6.1 °F 28% 30.23 in 10.0 mi West 3.5 mph - N/A   Clear
10:53 PM 33.1 °F 28.7 °F 5.0 °F 31% 30.25 in 10.0 mi NNE 4.6 mph - N/A   Clear
11:53 PM 34.0 °F - 6.1 °F 31% 30.26 in 10.0 mi Calm Calm - N/A   Clear